PDT,Max TemperatureF,Mean TemperatureF,Min TemperatureF,Max Dew PointF,MeanDew PointF,Min DewpointF,Max Humidity, Mean Humidity, Min Humidity, Max Sea Level PressureIn, Mean Sea Level PressureIn, Min Sea Level PressureIn, Max VisibilityMiles, Mean VisibilityMiles, Min VisibilityMiles, Max Wind SpeedMPH, Mean Wind SpeedMPH, Max Gust SpeedMPH,PrecipitationIn, CloudCover, Events, WindDirDegrees
2013-8-1,72,66,60,57,55,55,84,71,57,30.06,30.00,29.93,10,9,6,14,3,18,0.00,5,,223
2013-8-2,74,64,53,58,56,50,84,71,57,29.99,29.96,29.94,10,9,7,13,4,22,0.00,1,,247
2013-8-3,73,66,59,58,57,55,90,76,61,30.03,29.99,29.95,10,9,5,13,4,18,0.00,5,,252
2013-8-4,71,65,59,57,56,55,90,74,57,30.04,30.00,29.96,10,8,4,13,4,17,0.00,6,,255
2013-8-5,74,66,57,57,56,55,93,75,57,30.04,29.99,29.95,10,6,1,13,4,,0.00,5,,257
2013-8-6,73,67,60,57,56,55,90,74,57,30.07,30.03,29.99,10,9,6,14,5,20,0.00,5,,242
2013-8-7,71,65,58,57,56,54,90,74,57,30.11,30.05,30.00,10,9,5,14,5,20,0.00,5,,237
2013-8-8,73,66,59,57,56,55,87,70,53,30.02,29.98,29.93,10,10,7,14,5,18,0.00,5,,244
2013-8-9,72,66,59,58,56,55,84,71,57,29.99,29.95,29.91,10,10,8,16,5,20,0.00,3,,242
2013-8-10,73,66,59,58,57,55,90,76,61,30.05,30.00,29.96,10,9,5,15,5,18,0.00,4,,250
2013-8-11,74,67,60,58,57,57,90,74,57,30.02,29.98,29.93,10,9,6,14,4,22,0.00,4,,235
2013-8-12,74,68,61,59,58,57,90,76,61,30.00,29.96,29.93,10,9,7,13,4,,0.00,3,,235
2013-8-13,74,68,61,60,58,57,90,76,61,30.01,29.94,29.89,10,7,5,12,5,16,0.00,5,,245
2013-8-14,75,68,60,61,59,57,97,79,60,29.96,29.90,29.85,9,5,0,12,4,17,0.00,6,Fog,245
2013-8-15,77,69,61,63,60,59,97,79,60,29.97,29.93,29.89,8,4,2,12,4,21,0.00,5,,253
2013-8-16,77,69,61,61,60,58,100,80,60,29.99,29.95,29.92,10,4,2,13,4,22,0.00,5,,256
2013-8-17,75,68,61,61,59,57,100,81,61,29.98,29.89,29.84,10,6,0,12,4,16,0.00,5,Fog,241
2013-8-18,77,68,59,60,58,57,90,72,54,29.93,29.88,29.84,10,7,1,12,4,20,0.00,6,,247
2013-8-19,74,67,60,61,59,57,93,77,61,29.98,29.93,29.88,10,7,2,12,4,16,0.00,6,,257
2013-8-20,75,68,61,59,58,56,97,77,57,29.98,29.93,29.89,10,8,4,13,4,17,0.00,4,,270
2013-8-21,75,67,58,59,56,53,86,72,57,29.96,29.93,29.88,10,10,8,13,5,17,0.00,1,,254
2013-8-22,80,69,57,58,56,53,90,66,42,29.95,29.91,29.86,10,10,10,16,4,18,0.00,0,,255
2013-8-23,78,68,57,59,56,52,90,69,47,29.89,29.84,29.78,10,10,7,13,4,16,0.00,0,,256
2013-8-24,76,65,54,59,56,51,93,73,53,29.90,29.85,29.81,10,6,0,13,4,,0.00,3,Fog,257
2013-8-25,78,67,55,59,57,54,100,75,50,29.94,29.90,29.87,10,5,0,10,4,15,0.00,3,Fog,276
2013-8-26,83,69,55,60,56,49,87,65,42,29.95,29.90,29.86,10,10,10,12,5,,0.00,0,,270
2013-8-27,80,72,64,61,59,57,87,68,48,29.87,29.84,29.81,10,10,9,12,5,16,0.00,1,,266
2013-8-28,82,72,62,60,59,56,90,66,42,29.91,29.86,29.80,10,10,7,12,4,17,0.00,0,,266
2013-8-29,85,73,61,60,59,56,90,64,37,29.96,29.93,29.89,10,10,10,9,4,,0.00,0,,261
2013-8-30,87,76,64,65,60,56,87,64,40,29.98,29.95,29.91,10,10,10,17,4,20,0.00,1,,240
2013-8-31,87,79,71,65,63,60,79,60,40,29.99,29.95,29.90,10,10,10,14,4,16,0.00,0,,226